Regional Weather Roundup
Issued by NWS

Home | Current Version | Previous Version | Graphics & Text | Print | Product List | Glossary Off
Versions: 1 2 3 4 5 6 7 8 9 10 11 12 13 14 15 16 17 18 19 20 21 22 23 24 25 26 27 28 29 30 31 32 33 34 35 36 37 38 39 40 41 42 43 44 45 46 47 48 49 50

000
ASUS43 KMKX 300021
RWRWI

WISCONSIN REGIONAL WEATHER ROUNDUP
NATIONAL WEATHER SERVICE MILWAUKEE/SULLIVAN WI
700 PM CDT TUE JUL 29 2014

NOTE: "FAIR" INDICATES FEW OR NO CLOUDS BELOW 12,000 FEET WITH NO
SIGNIFICANT WEATHER AND/OR OBSTRUCTIONS TO VISIBILITY.

WIZ001-002-006>008-014>016-023>028-300100-
NORTHWEST WISCONSIN

CITY           SKY/WX    TMP DP  RH WIND       PRES   REMARKS
SUPERIOR ARPT  CLOUDY    66  60  81 SW5       30.01F
6HR MIN TEMP:  63; 6HR MAX TEMP:  79; 6HR PCP:  0.03;

ASHLAND        CLOUDY    63  59  87 SW7       30.01F
6HR MIN TEMP:  61; 6HR MAX TEMP:  77; 6HR PCP:  0.04;

HAYWARD        LGT RAIN  60  58  92 CALM      30.05F
6HR MIN TEMP:  60; 6HR MAX TEMP:  78; 6HR PCP:  0.44;

SIREN          PTSUNNY   74  53  48 NE13G28   30.05R
6HR MIN TEMP:  74; 6HR MAX TEMP:  78;

RICE LAKE      PTSUNNY   72  57  60 W9        30.04S
6HR MIN TEMP:  65; 6HR MAX TEMP:  76;

LADYSMITH      RAIN      60  57  89 NE9       30.06F
6HR MIN TEMP:  59; 6HR MAX TEMP:  76; 6HR PCP:  0.21;

EAU CLAIRE     MOSUNNY   71  58  63 W7        30.02S
6HR MIN TEMP:  67; 6HR MAX TEMP:  80; 6HR PCP:  0.01;

MENOMONIE      MOCLDY    71  56  57 N6        30.03S
6HR MIN TEMP:  69; 6HR MAX TEMP:  80;

NEW RICHMOND   MOSUNNY   74  55  49 NW7       30.04S
6HR MIN TEMP:  71; 6HR MAX TEMP:  79;

OSCEOLA        MOSUNNY   75  55  49 NW8G17    30.06S
6HR MIN TEMP:  74; 6HR MAX TEMP:  79;

$$

WIZ003>005-009-010-017-018-300100-
NORTH CENTRAL WISCONSIN

CITY           SKY/WX    TMP DP  RH WIND       PRES   REMARKS
WOODRUFF       PTSUNNY   69  57  64 N9        30.01F
6HR MIN TEMP:  67; 6HR MAX TEMP:  77;

RHINELANDER    PTSUNNY   63  57  81 W5        30.02R
6HR MIN TEMP:  61; 6HR MAX TEMP:  74; 6HR PCP:  0.06;

EAGLE RIVER    PTSUNNY   65  54  68 NW6       30.00R
6HR MIN TEMP:  60; 6HR MAX TEMP:  72; 6HR PCP:  0.43;

LAND O LAKES   PTSUNNY   67  53  61 N8        30.01S
6HR MIN TEMP:  65; 6HR MAX TEMP:  72;

PHILLIPS       PTSUNNY   58  56  91 CALM      30.03F
6HR MIN TEMP:  58; 6HR MAX TEMP:  73; 6HR PCP:  0.09;

TOMAHAWK       CLOUDY    60  56  85 NW7       30.04R
6HR MIN TEMP:  59; 6HR MAX TEMP:  74; 6HR PCP:  0.42;

MEDFORD        CLOUDY    58  55  92 CALM      30.04F
MERRILL        CLOUDY    61  58  91 W5        30.02R
6HR MIN TEMP:  60; 6HR MAX TEMP:  75; 6HR PCP:  0.12;

$$

WIZ029-030-035-036-043>047-300100-
CENTRAL WISCONSIN

CITY           SKY/WX    TMP DP  RH WIND       PRES   REMARKS
WAUSAU         LGT RAIN  61  57  87 W8        30.00F
6HR MIN TEMP:  60; 6HR MAX TEMP:  78; 6HR PCP:  0.26;

MOSINEE        PTSUNNY   64  54  68 NW10      30.04R
MARSHFIELD     PTSUNNY   66  59  78 NW6       30.04S
6HR MIN TEMP:  60; 6HR MAX TEMP:  79; 6HR PCP:  0.25;

STEVENS POINT  PTSUNNY   67  52  57 W6        30.02S
6HR MIN TEMP:  67; 6HR MAX TEMP:  75;

WAUPACA        PTSUNNY   64  60  87 CALM      30.01S
6HR MIN TEMP:  62; 6HR MAX TEMP:  82; 6HR PCP:  0.07;

WAUTOMA        LGT RAIN  66  56  70 NW8G18    30.01R
6HR MIN TEMP:  66; 6HR MAX TEMP:  81; 6HR PCP:  0.03;

WISC RAPIDS    PTSUNNY   65  59  81 W7        30.04R
6HR MIN TEMP:  63; 6HR MAX TEMP:  80; 6HR PCP:  0.04;

CAMP DOUGLAS   LGT RAIN  61  61 100 W8        30.05F
                                      6HR PCP:  0.55;

$$

WIZ011>013-019>022-031-037>040-048>050-300100-
NORTHEAST WISCONSIN

CITY           SKY/WX    TMP DP  RH WIND       PRES   REMARKS
ANTIGO         PTSUNNY   62  57  84 NW5       30.01S
6HR MIN TEMP:  58; 6HR MAX TEMP:  74; 6HR PCP:  0.17;

STURGEON BAY   CLOUDY    66  57  72 SW7       29.97S
6HR MIN TEMP:  64; 6HR MAX TEMP:  70;

GREEN BAY      PTSUNNY   62  59  90 SW5       29.98F
6HR MIN TEMP:  61; 6HR MAX TEMP:  78; 6HR PCP:  0.65;

MANITOWOC      CLOUDY    61  58  90 W7        29.98F
6HR MIN TEMP:  61; 6HR MAX TEMP:  77; 6HR PCP:  0.26;

APPLETON       LGT RAIN  59  57  94 W9        30.02F
CLINTONVILLE   CLOUDY    61  59  94 CALM      29.99F
OSHKOSH        TSTM      61  57  87 N13       30.04R FOG
6HR MIN TEMP:  62; 6HR MAX TEMP:  78; 6HR PCP:  0.07;

$$

WIZ032>034-041-042-053>061-300100-
SOUTHWEST WISCONSIN

CITY           SKY/WX    TMP DP  RH WIND       PRES   REMARKS
LA CROSSE      PTSUNNY   72  59  63 NE14G22   30.03S
6HR MIN TEMP:  70; 6HR MAX TEMP:  82;

SPARTA         TSTM      62  58  90 E6        30.08R
6HR MIN TEMP:  61; 6HR MAX TEMP:  80; 6HR PCP:  0.22;

VIROQUA        MOCLDY    68  60  76 CALM      30.05S
6HR MIN TEMP:  63; 6HR MAX TEMP:  77; 6HR PCP:  0.03;

BOSCOBEL       CLOUDY    72  56  57 E6        30.03R
6HR MIN TEMP:  72; 6HR MAX TEMP:  84;

PRAIRIE DU CHI SUNNY     77  52  41 W8        30.02S
PLATTEVILLE    FAIR      76  55  48 W7        30.04S
6HR MIN TEMP:  76; 6HR MAX TEMP:  80;

$$

WIZ056-057-062-063-064-067-068-300100-
SOUTH CENTRAL WISCONSIN

CITY           SKY/WX    TMP DP  RH WIND       PRES   REMARKS
BARABOO/DELLS  CLOUDY    63  58  85 SW3       30.03F
6HR MIN TEMP:  62; 6HR MAX TEMP:  79; 6HR PCP:  0.01;

LONE ROCK      CLOUDY    69  61  75 E3        30.03F
6HR MIN TEMP:  69; 6HR MAX TEMP:  83; 6HR PCP:  0.02;

WATERTOWN      SUNNY     74  55  50 W6        29.98S
6HR MIN TEMP:  74; 6HR MAX TEMP:  78;

MADISON        LGT RAIN  66  57  72 VRB7G20   30.00S
6HR MIN TEMP:  66; 6HR MAX TEMP:  81; 6HR PCP: TRACE;

MIDDLETON      CLOUDY    65  59  82 W15       30.04R
6HR MIN TEMP:  65; 6HR MAX TEMP:  80; 6HR PCP:  0.02;

MONROE         MOSUNNY   72  54  53 NW6       30.03R
JANESVILLE     MOSUNNY   79  52  38 NW12      29.99S
$$

WIZ051-052-058>065-066-070>072-300100-
SOUTHEAST WISCONSIN

CITY           SKY/WX    TMP DP  RH WIND       PRES   REMARKS
MILWAUKEE      PTSUNNY   76  52  43 NW10      29.97F
6HR MIN TEMP:  76; 6HR MAX TEMP:  79;

WAUKESHA       MOSUNNY   73  52  46 NW10      30.00R
MILWAUKEE/TIMM MOSUNNY   75  52  43 NW8       29.98S
RACINE         MOSUNNY   70  58  65 S6        29.99
6HR MIN TEMP:  70; 6HR MAX TEMP:  75;

BURLINGTON     SUNNY     71  55  58 W5        29.99S
6HR MIN TEMP:  71; 6HR MAX TEMP:  76;

KENOSHA        SUNNY     75  55  49 NW7       29.98F
6HR MIN TEMP:  74; 6HR MAX TEMP:  78;

FOND DU LAC    TSTM      61  57  87 NE16G23   30.02R FOG
6HR MIN TEMP:  62; 6HR MAX TEMP:  79; 6HR PCP:  0.09;

SHEBOYGAN      RAIN      61  56  83 N12       30.02R
6HR MIN TEMP:  61; 6HR MAX TEMP:  77; 6HR PCP:  0.12;

WEST BEND      PTSUNNY   66  50  55 E6        29.99R
JUNEAU         MOSUNNY   73  49  42 W3        29.99F
6HR MIN TEMP:  72; 6HR MAX TEMP:  77;

$$

LSZ147-162-300100-
LAKE SUPERIOR

STATION/POSITION TIME  TEMP    WIND        PRES    WAVE
                       AIR SEA DIR/SP/G            HT/PER
                 (UTC) (F)     (DEG/KT/KT) (MB)    (FT/S)
W MID LAKE BUOY  2350   50 44  250/  6/  8 1016.0F   1
PORT WING        2340   64     190/  6/  8 1015.9F
SAXON HARBOR     2300           CALM  /  4 1016.3F
$$

LMZ867-665-643>646-300100-
LAKE MICHIGAN

STATION/POSITION TIME  TEMP    WIND        PRES    WAVE
                       AIR SEA DIR/SP/G            HT/PER
                 (UTC) (F)     (DEG/KT/KT) (MB)    (FT/S)
N MID LAKE BUOY  2350   58 56  220/  4/  4 1014.0R   0
NORTHPORT PIER   2300   67     330/  1/  4 1014.2S
SISTER BAY       2340   68        CALM       N/A
ALGOMA LAKESHORE 2336          270/ 10/ 12   N/A
KEWAUNEE LAKESHO 0000   65     260/  5/  7 1015.3F
SHEBOYGAN LAKESH 0000   64     300/ 11/ 16 1016.4R
PORT WASHINGTON  2300   76      40/ 17/ 25 1015.6
ATWATER BUOY     0000   65      60/ 10     1016.4R
MILWAUKEE LAKESH 0000   68     150/  7/  9   N/A
S MID LAKE BUOY  2350   63 62  200/  6/  8 1015.3F   0
KENOSHA   LAKESH 0000   65     180/  8/ 12 1014.9S
$$

TC  - TEMPERATURE IN CELSIUS
VSB - VISIBILITY IN STATUTE MILES
WCI - WIND CHILL INDEX
HX  - HEAT INDEX




USA.gov is the U.S. government's official web portal to all federal, state and local government web resources and services.